Time,TemperatureF,DewpointF,PressureIn,WindDirection,WindDirectionDegrees,WindSpeedMPH,WindSpeedGustMPH,Humidity,HourlyPrecipIn,Conditions,Clouds,dailyrainin,SolarRadiationWatts/m^2,SoftwareType,DateUTC
2013-02-25 00:01:00,74.0,70.0,-100.00,WNW,295,3.0,-999.0,87,0.00,,,-99.99,0.000000,,2013-02-25 05:01:00,
2013-02-25 00:11:00,74.0,70.0,-100.00,NW,309,2.0,-999.0,87,0.00,,,-99.99,0.000000,,2013-02-25 05:11:00,
2013-02-25 00:22:00,74.0,70.0,-100.00,NW,309,2.0,-999.0,87,0.00,,,-99.99,0.000000,,2013-02-25 05:22:00,
2013-02-25 00:32:00,73.0,69.0,-100.00,WSW,258,1.0,-999.0,86,0.00,,,-99.99,0.000000,,2013-02-25 05:32:00,
2013-02-25 00:42:00,73.0,69.0,-100.00,WSW,249,1.0,-999.0,85,0.00,,,-99.99,0.000000,,2013-02-25 05:42:00,
2013-02-25 00:52:00,73.0,69.0,-100.00,WSW,249,1.0,-999.0,85,0.00,,,-99.99,0.000000,,2013-02-25 05:52:00,
2013-02-25 01:02:00,73.0,69.0,-100.00,West,260,1.0,-999.0,86,0.00,,,-99.99,0.000000,,2013-02-25 06:02:00,
2013-02-25 01:12:00,72.0,68.0,-100.00,North,358,1.0,-999.0,87,0.00,,,-99.99,0.000000,,2013-02-25 06:12:00,
2013-02-25 01:21:00,72.0,68.0,-100.00,North,358,1.0,-999.0,87,0.00,,,-99.99,0.000000,,2013-02-25 06:21:00,
2013-02-25 01:32:00,72.0,68.0,-100.00,NNE,29,2.0,-999.0,88,0.00,,,-99.99,0.000000,,2013-02-25 06:32:00,
2013-02-25 01:42:00,71.0,68.0,-100.00,NNE,21,2.0,-999.0,88,0.00,,,-99.99,0.000000,,2013-02-25 06:42:00,
2013-02-25 01:52:00,71.0,68.0,-100.00,NNE,21,2.0,-999.0,88,0.00,,,-99.99,0.000000,,2013-02-25 06:52:00,
2013-02-25 02:01:00,71.0,68.0,-100.00,NE,38,1.0,-999.0,89,0.00,,,-99.99,0.000000,,2013-02-25 07:01:00,
2013-02-25 02:11:00,71.0,68.0,-100.00,West,260,0.0,-999.0,89,0.00,,,-99.99,0.000000,,2013-02-25 07:11:00,
2013-02-25 02:21:00,71.0,68.0,-100.00,West,260,0.0,-999.0,89,0.00,,,-99.99,0.000000,,2013-02-25 07:21:00,
2013-02-25 02:32:00,71.0,68.0,-100.00,SSE,166,1.0,-999.0,89,0.00,,,-99.99,0.000000,,2013-02-25 07:32:00,
2013-02-25 02:42:00,70.0,67.0,-100.00,SSE,150,2.0,-999.0,90,0.00,,,-99.99,0.000000,,2013-02-25 07:42:00,
2013-02-25 02:52:00,70.0,67.0,-100.00,SSE,150,2.0,-999.0,90,0.00,,,-99.99,0.000000,,2013-02-25 07:52:00,
2013-02-25 03:01:00,70.0,67.0,-100.00,SSE,155,1.0,-999.0,90,0.00,,,-99.99,0.000000,,2013-02-25 08:01:00,
2013-02-25 03:11:00,70.0,67.0,-100.00,SSE,152,2.0,-999.0,91,0.00,,,-99.99,0.000000,,2013-02-25 08:11:00,
2013-02-25 03:21:00,70.0,67.0,-100.00,SSE,152,2.0,-999.0,91,0.00,,,-99.99,0.000000,,2013-02-25 08:21:00,
2013-02-25 03:32:00,70.0,67.0,-100.00,ESE,118,2.0,-999.0,91,0.00,,,-99.99,0.000000,,2013-02-25 08:32:00,
2013-02-25 03:42:00,70.0,67.0,-100.00,SSE,158,2.0,-999.0,91,0.00,,,-99.99,0.000000,,2013-02-25 08:42:00,
2013-02-25 03:52:00,70.0,67.0,-100.00,SSE,158,2.0,-999.0,91,0.00,,,-99.99,0.000000,,2013-02-25 08:52:00,
2013-02-25 04:01:00,70.0,67.0,-100.00,NNE,12,0.0,-999.0,91,0.00,,,-99.99,0.000000,,2013-02-25 09:01:00,
2013-02-25 04:12:00,69.0,67.0,-100.00,ESE,121,0.0,-999.0,92,0.00,,,-99.99,0.000000,,2013-02-25 09:12:00,
2013-02-25 04:21:00,69.0,67.0,-100.00,ESE,121,0.0,-999.0,92,0.00,,,-99.99,0.000000,,2013-02-25 09:21:00,
2013-02-25 04:32:00,70.0,67.0,-100.00,South,178,1.0,-999.0,92,0.00,,,-99.99,0.000000,,2013-02-25 09:32:00,
2013-02-25 04:42:00,70.0,68.0,-100.00,SSE,147,3.0,-999.0,92,0.00,,,-99.99,0.000000,,2013-02-25 09:42:00,
2013-02-25 04:52:00,70.0,68.0,-100.00,SSE,147,3.0,-999.0,92,0.00,,,-99.99,0.000000,,2013-02-25 09:52:00,
2013-02-25 05:01:00,70.0,68.0,-100.00,SSE,149,2.0,-999.0,92,0.00,,,-99.99,0.000000,,2013-02-25 10:01:00,
2013-02-25 05:11:00,70.0,68.0,-100.00,ENE,62,1.0,-999.0,91,0.00,,,-99.99,0.000000,,2013-02-25 10:11:00,
2013-02-25 05:21:00,70.0,68.0,-100.00,ENE,62,1.0,-999.0,91,0.00,,,-99.99,0.000000,,2013-02-25 10:21:00,
2013-02-25 05:32:00,70.0,68.0,-100.00,NNW,346,0.0,-999.0,92,0.00,,,-99.99,0.000000,,2013-02-25 10:32:00,
2013-02-25 05:42:00,70.0,68.0,-100.00,SE,145,2.0,-999.0,92,0.00,,,-99.99,0.000000,,2013-02-25 10:42:00,
2013-02-25 05:52:00,70.0,68.0,-100.00,SE,145,2.0,-999.0,92,0.00,,,-99.99,0.000000,,2013-02-25 10:52:00,
2013-02-25 06:01:00,70.0,68.0,-100.00,ESE,106,2.0,-999.0,92,0.00,,,-99.99,0.000000,,2013-02-25 11:01:00,
2013-02-25 06:11:00,71.0,68.0,-100.00,SE,136,3.0,-999.0,92,0.00,,,-99.99,0.000000,,2013-02-25 11:11:00,
2013-02-25 06:22:00,71.0,68.0,-100.00,SE,136,3.0,-999.0,92,0.00,,,-99.99,0.000000,,2013-02-25 11:22:00,
2013-02-25 06:32:00,71.0,69.0,-100.00,SSE,147,2.0,-999.0,93,0.00,,,-99.99,0.000000,,2013-02-25 11:32:00,
2013-02-25 06:42:00,71.0,69.0,-100.00,SSE,161,2.0,-999.0,93,0.00,,,-99.99,0.000000,,2013-02-25 11:42:00,
2013-02-25 06:52:00,71.0,69.0,-100.00,SSE,161,2.0,-999.0,93,0.00,,,-99.99,0.000000,,2013-02-25 11:52:00,
2013-02-25 07:02:00,71.0,69.0,-100.00,SSE,160,2.0,-999.0,93,0.00,,,-99.99,0.300000,,2013-02-25 12:02:00,
2013-02-25 07:11:00,71.0,69.0,-100.00,South,186,2.0,-999.0,93,0.00,,,-99.99,6.700000,,2013-02-25 12:11:00,
2013-02-25 07:21:00,71.0,69.0,-100.00,South,186,2.0,-999.0,93,0.00,,,-99.99,6.700000,,2013-02-25 12:21:00,
2013-02-25 07:32:00,72.0,70.0,-100.00,SE,139,3.0,-999.0,93,0.00,,,-99.99,27.000000,,2013-02-25 12:32:00,
2013-02-25 07:42:00,73.0,71.0,-100.00,SSE,154,3.0,-999.0,93,0.00,,,-99.99,49.799999,,2013-02-25 12:42:00,
2013-02-25 07:55:00,73.0,71.0,-100.00,SSE,154,3.0,-999.0,93,0.00,,,-99.99,49.799999,,2013-02-25 12:55:00,
2013-02-25 08:02:00,74.0,72.0,-100.00,SSE,152,3.0,-999.0,93,0.00,,,-99.99,113.800003,,2013-02-25 13:02:00,
2013-02-25 08:12:00,75.0,72.0,-100.00,SSE,149,4.0,-999.0,92,0.00,,,-99.99,131.199997,,2013-02-25 13:12:00,
2013-02-25 08:22:00,75.0,72.0,-100.00,SSE,149,4.0,-999.0,92,0.00,,,-99.99,131.199997,,2013-02-25 13:22:00,
2013-02-25 08:32:00,75.0,73.0,-100.00,SSE,166,3.0,-999.0,91,0.00,,,-99.99,184.699997,,2013-02-25 13:32:00,
2013-02-25 08:42:00,76.0,73.0,-100.00,South,185,4.0,-999.0,90,0.00,,,-99.99,268.200012,,2013-02-25 13:42:00,
2013-02-25 08:52:00,76.0,73.0,-100.00,South,185,4.0,-999.0,90,0.00,,,-99.99,268.200012,,2013-02-25 13:52:00,
2013-02-25 09:03:00,77.0,73.0,-100.00,South,186,4.0,-999.0,88,0.00,,,-99.99,161.300003,,2013-02-25 14:03:00,
2013-02-25 09:18:00,77.0,73.0,-100.00,South,185,5.0,-999.0,87,0.00,,,-99.99,177.699997,,2013-02-25 14:18:00,
2013-02-25 09:32:00,78.0,73.0,-100.00,South,179,8.0,-999.0,85,0.00,,,-99.99,261.700012,,2013-02-25 14:32:00,
2013-02-25 09:42:00,79.0,73.0,-100.00,South,185,7.0,-999.0,81,0.00,,,-99.99,445.799988,,2013-02-25 14:42:00,
2013-02-25 09:52:00,79.0,73.0,-100.00,South,185,7.0,-999.0,81,0.00,,,-99.99,445.799988,,2013-02-25 14:52:00,
2013-02-25 10:02:00,80.0,73.0,-100.00,South,188,7.0,-999.0,79,0.00,,,-99.99,350.899994,,2013-02-25 15:02:00,
2013-02-25 10:11:00,80.0,72.0,-100.00,South,190,8.0,-999.0,75,0.00,,,-99.99,233.100006,,2013-02-25 15:11:00,
2013-02-25 10:22:00,80.0,72.0,-100.00,South,190,8.0,-999.0,75,0.00,,,-99.99,233.100006,,2013-02-25 15:22:00,
2013-02-25 10:32:00,81.0,72.0,-100.00,South,169,8.0,-999.0,72,0.00,,,-99.99,576.700012,,2013-02-25 15:32:00,
2013-02-25 10:42:00,81.0,71.0,-100.00,South,186,10.0,-999.0,71,0.00,,,-99.99,485.000000,,2013-02-25 15:42:00,
2013-02-25 10:52:00,81.0,71.0,-100.00,South,186,10.0,-999.0,71,0.00,,,-99.99,485.000000,,2013-02-25 15:52:00,
2013-02-25 11:02:00,82.0,71.0,-100.00,SSW,200,9.0,-999.0,70,0.00,,,-99.99,442.399994,,2013-02-25 16:02:00,
2013-02-25 11:12:00,82.0,71.0,-100.00,South,181,7.0,-999.0,69,0.00,,,-99.99,527.500000,,2013-02-25 16:12:00,
2013-02-25 11:21:00,82.0,71.0,-100.00,South,181,7.0,-999.0,69,0.00,,,-99.99,527.500000,,2013-02-25 16:21:00,
2013-02-25 11:32:00,83.0,71.0,-100.00,South,187,8.0,-999.0,67,0.00,,,-99.99,647.099976,,2013-02-25 16:32:00,
2013-02-25 11:42:00,83.0,71.0,-100.00,South,191,9.0,-999.0,65,0.00,,,-99.99,573.700012,,2013-02-25 16:42:00,
2013-02-25 11:52:00,83.0,71.0,-100.00,South,191,9.0,-999.0,65,0.00,,,-99.99,573.700012,,2013-02-25 16:52:00,
2013-02-25 12:01:00,83.0,70.0,-100.00,SSE,160,10.0,-999.0,64,0.00,,,-99.99,616.500000,,2013-02-25 17:01:00,
2013-02-25 12:11:00,83.0,70.0,-100.00,South,191,10.0,-999.0,65,0.00,,,-99.99,477.799988,,2013-02-25 17:11:00,
2013-02-25 12:21:00,83.0,70.0,-100.00,South,191,10.0,-999.0,65,0.00,,,-99.99,477.799988,,2013-02-25 17:21:00,
2013-02-25 12:32:00,84.0,71.0,-100.00,South,173,9.0,-999.0,66,0.00,,,-99.99,769.000000,,2013-02-25 17:32:00,
2013-02-25 12:42:00,85.0,71.0,-100.00,South,190,9.0,-999.0,63,0.00,,,-99.99,808.000000,,2013-02-25 17:42:00,
2013-02-25 12:52:00,85.0,71.0,-100.00,South,190,9.0,-999.0,63,0.00,,,-99.99,808.000000,,2013-02-25 17:52:00,
2013-02-25 13:01:00,84.0,71.0,-100.00,SSE,160,10.0,-999.0,66,0.00,,,-99.99,684.200012,,2013-02-25 18:01:00,
2013-02-25 13:12:00,83.0,71.0,-100.00,South,169,10.0,-999.0,66,0.00,,,-99.99,388.399994,,2013-02-25 18:12:00,
2013-02-25 13:21:00,83.0,71.0,-100.00,South,169,10.0,-999.0,66,0.00,,,-99.99,388.399994,,2013-02-25 18:21:00,
2013-02-25 13:32:00,83.0,71.0,-100.00,SSE,161,10.0,-999.0,67,0.00,,,-99.99,281.000000,,2013-02-25 18:32:00,
2013-02-25 13:42:00,82.0,71.0,-100.00,South,172,9.0,-999.0,69,0.00,,,-99.99,204.399994,,2013-02-25 18:42:00,
2013-02-25 13:52:00,82.0,71.0,-100.00,South,172,9.0,-999.0,69,0.00,,,-99.99,204.399994,,2013-02-25 18:52:00,
2013-02-25 14:01:00,83.0,71.0,-100.00,South,172,10.0,-999.0,68,0.00,,,-99.99,366.700012,,2013-02-25 19:01:00,
2013-02-25 14:11:00,83.0,70.0,-100.00,South,180,10.0,-999.0,66,0.00,,,-99.99,234.199997,,2013-02-25 19:11:00,
2013-02-25 14:21:00,83.0,70.0,-100.00,South,180,10.0,-999.0,66,0.00,,,-99.99,234.199997,,2013-02-25 19:21:00,
2013-02-25 14:32:00,82.0,70.0,-100.00,South,185,10.0,-999.0,67,0.00,,,-99.99,186.800003,,2013-02-25 19:32:00,
2013-02-25 14:42:00,82.0,71.0,-100.00,South,185,9.0,-999.0,67,0.00,,,-99.99,201.300003,,2013-02-25 19:42:00,
2013-02-25 14:52:00,82.0,71.0,-100.00,South,185,9.0,-999.0,67,0.00,,,-99.99,201.300003,,2013-02-25 19:52:00,
2013-02-25 15:01:00,84.0,70.0,-100.00,South,185,13.0,-999.0,63,0.00,,,-99.99,576.099976,,2013-02-25 20:01:00,
2013-02-25 15:11:00,84.0,71.0,-100.00,South,189,12.0,-999.0,63,0.00,,,-99.99,636.900024,,2013-02-25 20:11:00,
2013-02-25 15:21:00,84.0,71.0,-100.00,South,189,12.0,-999.0,63,0.00,,,-99.99,636.900024,,2013-02-25 20:21:00,
2013-02-25 15:32:00,85.0,70.0,-100.00,SSW,196,11.0,-999.0,60,0.00,,,-99.99,602.500000,,2013-02-25 20:32:00,
2013-02-25 15:42:00,85.0,70.0,-100.00,South,187,10.0,-999.0,61,0.00,,,-99.99,528.299988,,2013-02-25 20:42:00,
2013-02-25 15:52:00,85.0,70.0,-100.00,South,187,10.0,-999.0,61,0.00,,,-99.99,528.299988,,2013-02-25 20:52:00,
2013-02-25 16:01:00,84.0,69.0,-100.00,South,189,12.0,-999.0,60,0.00,,,-99.99,508.200012,,2013-02-25 21:01:00,
2013-02-25 16:11:00,84.0,69.0,-100.00,South,183,11.0,-999.0,59,0.00,,,-99.99,355.200012,,2013-02-25 21:11:00,
2013-02-25 16:21:00,84.0,69.0,-100.00,South,183,11.0,-999.0,59,0.00,,,-99.99,355.200012,,2013-02-25 21:21:00,
2013-02-25 16:32:00,84.0,69.0,-100.00,South,186,10.0,-999.0,60,0.00,,,-99.99,427.000000,,2013-02-25 21:32:00,
2013-02-25 16:42:00,84.0,69.0,-100.00,South,174,10.0,-999.0,60,0.00,,,-99.99,367.100006,,2013-02-25 21:42:00,
2013-02-25 16:52:00,84.0,69.0,-100.00,South,174,10.0,-999.0,60,0.00,,,-99.99,367.100006,,2013-02-25 21:52:00,
2013-02-25 17:01:00,83.0,69.0,-100.00,South,176,8.0,-999.0,62,0.00,,,-99.99,303.299988,,2013-02-25 22:01:00,
2013-02-25 17:11:00,82.0,70.0,-100.00,SSE,160,8.0,-999.0,66,0.00,,,-99.99,257.899994,,2013-02-25 22:11:00,
2013-02-25 17:21:00,82.0,70.0,-100.00,SSE,160,8.0,-999.0,66,0.00,,,-99.99,257.899994,,2013-02-25 22:21:00,
2013-02-25 17:32:00,82.0,70.0,-100.00,South,175,8.0,-999.0,66,0.00,,,-99.99,194.000000,,2013-02-25 22:32:00,
2013-02-25 17:42:00,82.0,68.0,-100.00,SSW,198,8.0,-999.0,62,0.00,,,-99.99,157.399994,,2013-02-25 22:42:00,
2013-02-25 17:52:00,82.0,68.0,-100.00,SSW,198,8.0,-999.0,62,0.00,,,-99.99,157.399994,,2013-02-25 22:52:00,
2013-02-25 18:01:00,81.0,67.0,-100.00,SSW,195,8.0,-999.0,60,0.00,,,-99.99,98.000000,,2013-02-25 23:01:00,
2013-02-25 18:11:00,81.0,66.0,-100.00,SSW,195,8.0,-999.0,61,0.00,,,-99.99,46.900002,,2013-02-25 23:11:00,
2013-02-25 18:22:00,81.0,66.0,-100.00,SSW,195,8.0,-999.0,61,0.00,,,-99.99,46.900002,,2013-02-25 23:22:00,
2013-02-25 18:32:00,80.0,68.0,-100.00,South,191,6.0,-999.0,65,0.00,,,-99.99,13.500000,,2013-02-25 23:32:00,
2013-02-25 18:42:00,79.0,68.0,-100.00,South,188,6.0,-999.0,67,0.00,,,-99.99,2.500000,,2013-02-25 23:42:00,
2013-02-25 18:52:00,79.0,68.0,-100.00,South,188,6.0,-999.0,67,0.00,,,-99.99,2.500000,,2013-02-25 23:52:00,
2013-02-25 19:01:00,79.0,68.0,-100.00,South,187,5.0,-999.0,69,0.00,,,-99.99,0.000000,,2013-02-26 00:01:00,
2013-02-25 19:12:00,78.0,70.0,-100.00,South,180,5.0,-999.0,74,0.00,,,-99.99,0.000000,,2013-02-26 00:12:00,
2013-02-25 19:22:00,78.0,70.0,-100.00,South,180,5.0,-999.0,74,0.00,,,-99.99,0.000000,,2013-02-26 00:22:00,
2013-02-25 19:32:00,78.0,70.0,-100.00,South,172,5.0,-999.0,77,0.00,,,-99.99,0.000000,,2013-02-26 00:32:00,
2013-02-25 19:42:00,78.0,71.0,-100.00,South,173,5.0,-999.0,79,0.00,,,-99.99,0.000000,,2013-02-26 00:42:00,
2013-02-25 19:52:00,78.0,71.0,-100.00,South,173,5.0,-999.0,79,0.00,,,-99.99,0.000000,,2013-02-26 00:52:00,
2013-02-25 20:02:00,77.0,71.0,-100.00,South,187,5.0,-999.0,81,0.00,,,-99.99,0.000000,,2013-02-26 01:02:00,
2013-02-25 20:11:00,77.0,71.0,-100.00,South,183,4.0,-999.0,81,0.00,,,-99.99,0.000000,,2013-02-26 01:11:00,
2013-02-25 20:21:00,77.0,71.0,-100.00,South,183,4.0,-999.0,81,0.00,,,-99.99,0.000000,,2013-02-26 01:21:00,
2013-02-25 20:32:00,77.0,71.0,-100.00,South,188,5.0,-999.0,82,0.00,,,-99.99,0.000000,,2013-02-26 01:32:00,
2013-02-25 20:42:00,76.0,71.0,-100.00,South,186,4.0,-999.0,83,0.00,,,-99.99,0.000000,,2013-02-26 01:42:00,
2013-02-25 20:52:00,76.0,71.0,-100.00,South,186,4.0,-999.0,83,0.00,,,-99.99,0.000000,,2013-02-26 01:52:00,
2013-02-25 21:01:00,76.0,71.0,-100.00,SSE,168,4.0,-999.0,83,0.00,,,-99.99,0.000000,,2013-02-26 02:01:00,
2013-02-25 21:11:00,76.0,71.0,-100.00,SSE,157,5.0,-999.0,83,0.00,,,-99.99,0.000000,,2013-02-26 02:11:00,
2013-02-25 21:21:00,76.0,71.0,-100.00,SSE,157,5.0,-999.0,83,0.00,,,-99.99,0.000000,,2013-02-26 02:21:00,
2013-02-25 21:32:00,76.0,71.0,-100.00,SSE,157,4.0,-999.0,83,0.00,,,-99.99,0.000000,,2013-02-26 02:32:00,
2013-02-25 21:42:00,76.0,71.0,-100.00,South,177,3.0,-999.0,84,0.00,,,-99.99,0.000000,,2013-02-26 02:42:00,
2013-02-25 21:52:00,76.0,71.0,-100.00,South,177,3.0,-999.0,84,0.00,,,-99.99,0.000000,,2013-02-26 02:52:00,
2013-02-25 22:02:00,76.0,71.0,-100.00,SSE,149,4.0,-999.0,85,0.00,,,-99.99,0.000000,,2013-02-26 03:02:00,
2013-02-25 22:11:00,76.0,71.0,-100.00,SSE,149,6.0,-999.0,86,0.00,,,-99.99,0.000000,,2013-02-26 03:11:00,
2013-02-25 22:21:00,76.0,71.0,-100.00,SSE,149,6.0,-999.0,86,0.00,,,-99.99,0.000000,,2013-02-26 03:21:00,
2013-02-25 22:32:00,76.0,72.0,-100.00,SSE,158,4.0,-999.0,87,0.00,,,-99.99,0.000000,,2013-02-26 03:32:00,
2013-02-25 22:42:00,76.0,72.0,-100.00,SSE,160,4.0,-999.0,88,0.00,,,-99.99,0.000000,,2013-02-26 03:42:00,
2013-02-25 22:52:00,76.0,72.0,-100.00,SSE,160,4.0,-999.0,88,0.00,,,-99.99,0.000000,,2013-02-26 03:52:00,
2013-02-25 23:01:00,76.0,72.0,-100.00,South,170,4.0,-999.0,88,0.00,,,-99.99,0.000000,,2013-02-26 04:01:00,
2013-02-25 23:11:00,76.0,72.0,-100.00,SSE,160,6.0,-999.0,88,0.00,,,-99.99,0.000000,,2013-02-26 04:11:00,
2013-02-25 23:22:00,76.0,72.0,-100.00,SSE,160,6.0,-999.0,88,0.00,,,-99.99,0.000000,,2013-02-26 04:22:00,
2013-02-25 23:32:00,76.0,72.0,-100.00,South,169,5.0,-999.0,89,0.00,,,-99.99,0.000000,,2013-02-26 04:32:00,
2013-02-25 23:42:00,76.0,72.0,-100.00,SSE,154,5.0,-999.0,89,0.00,,,-99.99,0.000000,,2013-02-26 04:42:00,
2013-02-25 23:52:00,76.0,72.0,-100.00,SSE,154,5.0,-999.0,89,0.00,,,-99.99,0.000000,,2013-02-26 04:52:00,